Location: Killam
(52.7910°N, 111.8608°W)
Time: 10:07:36
(UTC+00:00)

FENGYUN 1C DEB - Pass Details

Date: 26 May 2024
Orbit: 795 x 992 km, 98.4° (Epoch: 16 June)

Event Time Altitude Azimuth Distance (km) Brightness Sun altitude
Rises 07:33:29 0° 8° (N) 3,314 ? -16.0°
Reaches altitude 10° 07:36:11 10° 355° (N) 2,386 ? -15.9°
Maximum altitude 07:40:16 24° 304° (WNW) 1,639 ? -15.9°
Drops below altitude 10° 07:44:26 10° 252° (WSW) 2,426 ? -15.9°
Enters shadow 07:46:11 - 243° (WSW) 3,010 ? -15.8°
